Time,TemperatureF,DewpointF,PressureIn,WindDirection,WindDirectionDegrees,WindSpeedMPH,WindSpeedGustMPH,Humidity,HourlyPrecipIn,Conditions,Clouds,dailyrainin,SoftwareType,DateUTC
2013-01-28 00:03:00,33.7,30.8,29.76,NNW,340,1.0,3.0,89,0.00,,,0.00,Wunderground v.1.15,2013-01-28 07:03:00,
2013-01-28 00:08:00,33.7,30.8,29.76,South,184,1.0,6.0,89,0.00,,,0.00,Wunderground v.1.15,2013-01-28 07:08:00,
2013-01-28 00:13:00,33.7,30.8,29.76,South,181,1.0,4.0,89,0.00,,,0.00,Wunderground v.1.15,2013-01-28 07:13:00,
2013-01-28 00:18:00,33.8,31.2,29.75,South,175,4.0,4.0,90,0.00,,,0.00,Wunderground v.1.15,2013-01-28 07:18:00,
2013-01-28 00:23:00,34.4,31.8,29.75,South,175,1.0,3.0,90,0.00,,,0.00,Wunderground v.1.15,2013-01-28 07:23:00,
2013-01-28 00:28:00,33.5,30.3,29.75,South,175,0.0,3.0,88,0.00,,,0.00,Wunderground v.1.15,2013-01-28 07:28:00,
2013-01-28 00:33:00,33.1,30.2,29.76,South,175,2.0,2.0,89,0.00,,,0.00,Wunderground v.1.15,2013-01-28 07:33:00,
2013-01-28 00:38:00,35.0,32.6,29.76,SSE,153,0.0,5.0,91,0.00,,,0.00,Wunderground v.1.15,2013-01-28 07:38:00,
2013-01-28 00:43:00,34.7,31.8,29.76,SSE,153,0.0,3.0,89,0.00,,,0.00,Wunderground v.1.15,2013-01-28 07:43:00,
2013-01-28 00:48:00,34.7,31.8,29.73,SSE,149,1.0,5.0,89,0.00,,,0.00,Wunderground v.1.15,2013-01-28 07:48:00,
2013-01-28 00:53:00,35.0,32.1,29.73,SSE,149,0.0,2.0,89,0.00,,,0.00,Wunderground v.1.15,2013-01-28 07:53:00,
2013-01-28 00:59:00,35.2,31.7,29.73,SE,126,2.0,5.0,87,0.00,,,0.00,Wunderground v.1.15,2013-01-28 07:59:00,
2013-01-28 01:04:00,34.1,30.6,29.73,SE,126,0.0,3.0,87,0.00,,,0.00,Wunderground v.1.15,2013-01-28 08:04:00,
2013-01-28 01:09:00,32.5,28.8,29.73,SE,126,0.0,3.0,86,0.00,,,0.00,Wunderground v.1.15,2013-01-28 08:09:00,
2013-01-28 01:14:00,32.1,28.7,29.73,SE,126,1.0,2.0,87,0.00,,,0.00,Wunderground v.1.15,2013-01-28 08:14:00,
2013-01-28 01:19:00,31.2,27.8,29.74,SE,126,0.0,2.0,87,0.00,,,0.00,Wunderground v.1.15,2013-01-28 08:19:00,
2013-01-28 01:24:00,30.6,27.2,29.74,SE,126,1.0,1.0,87,0.00,,,0.00,Wunderground v.1.15,2013-01-28 08:24:00,
2013-01-28 01:29:00,30.3,27.2,29.74,SE,126,0.0,1.0,88,0.00,,,0.00,Wunderground v.1.15,2013-01-28 08:29:00,
2013-01-28 01:34:00,30.3,27.4,29.75,SE,126,0.0,0.0,89,0.00,,,0.00,Wunderground v.1.15,2013-01-28 08:34:00,
2013-01-28 01:39:00,30.9,28.3,29.75,SE,126,0.0,2.0,90,0.00,,,0.00,Wunderground v.1.15,2013-01-28 08:39:00,
2013-01-28 01:44:00,31.2,28.3,29.75,SE,126,0.0,2.0,89,0.00,,,0.00,Wunderground v.1.15,2013-01-28 08:44:00,
2013-01-28 01:49:00,31.2,28.3,29.74,NW,305,1.0,11.0,89,0.00,,,0.00,Wunderground v.1.15,2013-01-28 08:49:00,
2013-01-28 01:54:00,31.2,28.3,29.74,NW,305,0.0,3.0,89,0.00,,,0.00,Wunderground v.1.15,2013-01-28 08:54:00,
2013-01-28 01:59:00,31.2,28.6,29.74,NW,305,0.0,3.0,90,0.00,,,0.00,Wunderground v.1.15,2013-01-28 08:59:00,
2013-01-28 02:04:00,31.2,28.6,29.75,NW,305,0.0,1.0,90,0.00,,,0.00,Wunderground v.1.15,2013-01-28 09:04:00,
2013-01-28 02:09:00,31.2,28.6,29.75,NW,305,0.0,1.0,90,0.00,,,0.00,Wunderground v.1.15,2013-01-28 09:09:00,
2013-01-28 02:14:00,31.2,28.6,29.75,NW,305,0.0,0.0,90,0.00,,,0.00,Wunderground v.1.15,2013-01-28 09:14:00,
2013-01-28 02:19:00,31.5,28.9,29.74,NW,305,0.0,0.0,90,0.00,,,0.00,Wunderground v.1.15,2013-01-28 09:19:00,
2013-01-28 02:24:00,31.2,28.6,29.74,NW,305,0.0,0.0,90,0.00,,,0.00,Wunderground v.1.15,2013-01-28 09:24:00,
2013-01-28 02:29:00,30.9,28.3,29.74,NW,306,0.0,0.0,90,0.00,,,0.00,Wunderground v.1.15,2013-01-28 09:29:00,
2013-01-28 02:34:00,30.7,28.1,29.75,NW,305,0.0,0.0,90,0.00,,,0.00,Wunderground v.1.15,2013-01-28 09:34:00,
2013-01-28 02:39:00,30.0,27.2,29.75,NW,305,0.0,0.0,89,0.00,,,0.00,Wunderground v.1.15,2013-01-28 09:39:00,
2013-01-28 02:44:00,30.3,27.7,29.75,NW,305,0.0,0.0,90,0.00,,,0.00,Wunderground v.1.15,2013-01-28 09:44:00,
2013-01-28 02:49:00,29.7,26.9,29.74,NW,305,0.0,0.0,89,0.00,,,0.00,Wunderground v.1.15,2013-01-28 09:49:00,
2013-01-28 02:54:00,28.7,25.9,29.74,NW,305,0.0,0.0,89,0.00,,,0.00,Wunderground v.1.15,2013-01-28 09:54:00,
2013-01-28 02:59:00,27.9,25.1,29.74,NW,305,0.0,0.0,89,0.00,,,0.00,Wunderground v.1.15,2013-01-28 09:59:00,
2013-01-28 03:04:00,27.5,24.7,29.76,NW,305,0.0,0.0,89,0.00,,,0.00,Wunderground v.1.15,2013-01-28 10:04:00,
2013-01-28 03:09:00,27.5,25.0,29.76,NW,305,0.0,0.0,90,0.00,,,0.00,Wunderground v.1.15,2013-01-28 10:09:00,
2013-01-28 03:14:00,27.5,25.0,29.76,NW,305,0.0,0.0,90,0.00,,,0.00,Wunderground v.1.15,2013-01-28 10:14:00,
2013-01-28 03:19:00,27.5,25.0,29.75,NW,305,0.0,0.0,90,0.00,,,0.00,Wunderground v.1.15,2013-01-28 10:19:00,
2013-01-28 03:24:00,27.5,25.0,29.75,NW,305,0.0,0.0,90,0.00,,,0.00,Wunderground v.1.15,2013-01-28 10:24:00,
2013-01-28 03:29:00,27.9,25.6,29.75,NW,305,0.0,0.0,91,0.00,,,0.00,Wunderground v.1.15,2013-01-28 10:29:00,
2013-01-28 03:34:00,27.9,25.3,29.75,NW,305,0.0,0.0,90,0.00,,,0.00,Wunderground v.1.15,2013-01-28 10:34:00,
2013-01-28 03:39:00,27.8,25.2,29.75,NW,306,0.0,0.0,90,0.00,,,0.00,Wunderground v.1.15,2013-01-28 10:39:00,
2013-01-28 03:44:00,27.8,25.2,29.75,NW,305,0.0,0.0,90,0.00,,,0.00,Wunderground v.1.15,2013-01-28 10:44:00,
2013-01-28 03:49:00,28.4,26.1,29.73,NW,305,0.0,0.0,91,0.00,,,0.00,Wunderground v.1.15,2013-01-28 10:49:00,
2013-01-28 03:54:00,29.0,26.7,29.73,NW,304,0.0,0.0,91,0.00,,,0.00,Wunderground v.1.15,2013-01-28 10:54:00,
2013-01-28 03:59:00,29.5,27.5,29.73,NW,304,0.0,0.0,92,0.00,,,0.00,Wunderground v.1.15,2013-01-28 10:59:00,
2013-01-28 04:04:00,30.3,28.3,29.73,NW,304,0.0,0.0,92,0.00,,,0.00,Wunderground v.1.15,2013-01-28 11:04:00,
2013-01-28 04:09:00,30.6,28.6,29.73,NW,304,0.0,0.0,92,0.00,,,0.00,Wunderground v.1.15,2013-01-28 11:09:00,
2013-01-28 04:14:00,31.0,28.9,29.73,NW,304,0.0,0.0,92,0.00,,,0.00,Wunderground v.1.15,2013-01-28 11:14:00,
2013-01-28 04:19:00,31.6,29.5,29.75,NW,304,0.0,0.0,92,0.00,,,0.00,Wunderground v.1.15,2013-01-28 11:19:00,
2013-01-28 04:24:00,32.2,30.1,29.75,NW,305,0.0,0.0,92,0.00,,,0.00,Wunderground v.1.15,2013-01-28 11:24:00,
2013-01-28 04:29:00,32.8,30.7,29.75,NW,305,0.0,0.0,92,0.00,,,0.00,Wunderground v.1.15,2013-01-28 11:29:00,
2013-01-28 04:34:00,33.1,31.0,29.73,NW,304,0.0,0.0,92,0.00,,,0.00,Wunderground v.1.15,2013-01-28 11:34:00,
2013-01-28 04:39:00,32.7,30.6,29.73,NW,305,0.0,0.0,92,0.00,,,0.00,Wunderground v.1.15,2013-01-28 11:39:00,
2013-01-28 04:44:00,32.5,30.4,29.73,NW,304,0.0,0.0,92,0.00,,,0.00,Wunderground v.1.15,2013-01-28 11:44:00,
2013-01-28 04:49:00,32.4,30.3,29.73,NW,304,0.0,0.0,92,0.00,,,0.00,Wunderground v.1.15,2013-01-28 11:49:00,
2013-01-28 04:54:00,32.5,30.4,29.73,NW,304,0.0,0.0,92,0.00,,,0.00,Wunderground v.1.15,2013-01-28 11:54:00,
2013-01-28 04:59:00,34.0,31.9,29.73,South,171,3.0,5.0,92,0.00,,,0.00,Wunderground v.1.15,2013-01-28 11:59:00,
2013-01-28 05:04:00,35.8,34.0,29.71,SSE,153,3.0,6.0,93,0.00,,,0.00,Wunderground v.1.15,2013-01-28 12:04:00,
2013-01-28 05:09:00,36.8,35.0,29.71,SSE,148,6.0,7.0,93,0.00,,,0.00,Wunderground v.1.15,2013-01-28 12:09:00,
2013-01-28 05:14:00,37.0,34.9,29.71,South,178,6.0,7.0,92,0.00,,,0.00,Wunderground v.1.15,2013-01-28 12:14:00,
2013-01-28 05:19:00,37.0,34.6,29.73,SSE,155,2.0,7.0,91,0.00,,,0.01,Wunderground v.1.15,2013-01-28 12:19:00,
2013-01-28 05:24:00,37.3,34.9,29.73,SSE,149,2.0,7.0,91,0.00,,,0.01,Wunderground v.1.15,2013-01-28 12:24:00,
2013-01-28 05:29:00,37.6,34.9,29.73,SE,141,1.0,7.0,90,0.00,,,0.01,Wunderground v.1.15,2013-01-28 12:29:00,
2013-01-28 05:34:00,37.0,33.8,29.73,WNW,302,2.0,6.0,88,0.00,,,0.01,Wunderground v.1.15,2013-01-28 12:34:00,
2013-01-28 05:39:00,36.0,32.8,29.73,WNW,300,2.0,6.0,88,0.00,,,0.01,Wunderground v.1.15,2013-01-28 12:39:00,
2013-01-28 05:44:00,35.3,32.4,29.73,WNW,300,1.0,3.0,89,0.00,,,0.01,Wunderground v.1.15,2013-01-28 12:44:00,
2013-01-28 05:49:00,34.9,32.0,29.74,WNW,300,0.0,3.0,89,0.00,,,0.01,Wunderground v.1.15,2013-01-28 12:49:00,
2013-01-28 05:54:00,34.6,31.7,29.74,WNW,300,0.0,1.0,89,0.00,,,0.01,Wunderground v.1.15,2013-01-28 12:54:00,
2013-01-28 05:59:00,34.6,31.7,29.74,WNW,300,0.0,1.0,89,0.00,,,0.01,Wunderground v.1.15,2013-01-28 12:59:00,
2013-01-28 06:04:00,34.4,31.8,29.73,NW,318,0.0,2.0,90,0.00,,,0.01,Wunderground v.1.15,2013-01-28 13:04:00,
2013-01-28 06:09:00,34.3,31.7,29.73,NW,318,0.0,2.0,90,0.00,,,0.01,Wunderground v.1.15,2013-01-28 13:09:00,
2013-01-28 06:14:00,34.1,31.5,29.73,NW,318,0.0,0.0,90,0.00,,,0.01,Wunderground v.1.15,2013-01-28 13:14:00,
2013-01-28 06:19:00,34.0,31.4,29.75,NW,318,0.0,0.0,90,0.00,,,0.01,Wunderground v.1.15,2013-01-28 13:19:00,
2013-01-28 06:24:00,34.0,31.4,29.75,NW,318,0.0,0.0,90,0.00,,,0.01,Wunderground v.1.15,2013-01-28 13:24:00,
2013-01-28 06:29:00,33.8,31.2,29.75,NW,318,0.0,0.0,90,0.00,,,0.01,Wunderground v.1.15,2013-01-28 13:29:00,
2013-01-28 06:34:00,33.7,31.1,29.75,NW,318,0.0,0.0,90,0.00,,,0.01,Wunderground v.1.15,2013-01-28 13:34:00,
2013-01-28 06:40:00,33.7,31.1,29.75,NW,318,0.0,0.0,90,0.00,,,0.01,Wunderground v.1.15,2013-01-28 13:40:00,
2013-01-28 06:45:00,33.8,31.5,29.75,NW,318,0.0,0.0,91,0.00,,,0.01,Wunderground v.1.15,2013-01-28 13:45:00,
2013-01-28 06:50:00,34.0,31.6,29.74,NW,318,0.0,0.0,91,0.00,,,0.01,Wunderground v.1.15,2013-01-28 13:50:00,
2013-01-28 06:55:00,34.0,31.6,29.74,NW,318,0.0,0.0,91,0.00,,,0.01,Wunderground v.1.15,2013-01-28 13:55:00,
2013-01-28 07:00:00,34.0,31.6,29.74,NW,318,0.0,0.0,91,0.00,,,0.01,Wunderground v.1.15,2013-01-28 14:00:00,
2013-01-28 07:05:00,34.0,31.6,29.75,NW,318,0.0,0.0,91,0.00,,,0.01,Wunderground v.1.15,2013-01-28 14:05:00,
2013-01-28 07:10:00,33.8,31.5,29.75,NW,318,0.0,0.0,91,0.00,,,0.01,Wunderground v.1.15,2013-01-28 14:10:00,
2013-01-28 07:15:00,33.5,30.9,29.75,NW,318,0.0,0.0,90,0.00,,,0.01,Wunderground v.1.15,2013-01-28 14:15:00,
2013-01-28 07:20:00,33.2,30.9,29.74,NW,318,0.0,0.0,91,0.00,,,0.01,Wunderground v.1.15,2013-01-28 14:20:00,
2013-01-28 07:25:00,33.1,30.8,29.74,NW,318,0.0,0.0,91,0.00,,,0.01,Wunderground v.1.15,2013-01-28 14:25:00,
2013-01-28 07:30:00,32.9,30.6,29.74,NW,318,0.0,0.0,91,0.00,,,0.01,Wunderground v.1.15,2013-01-28 14:30:00,
2013-01-28 07:35:00,32.9,30.6,29.75,NW,318,0.0,0.0,91,0.00,,,0.01,Wunderground v.1.15,2013-01-28 14:35:00,
2013-01-28 07:40:00,32.9,30.6,29.75,NW,318,0.0,0.0,91,0.00,,,0.01,Wunderground v.1.15,2013-01-28 14:40:00,
2013-01-28 07:45:00,32.9,30.6,29.75,NW,318,0.0,0.0,91,0.00,,,0.01,Wunderground v.1.15,2013-01-28 14:45:00,
2013-01-28 07:50:00,33.1,30.8,29.76,NW,318,0.0,0.0,91,0.00,,,0.01,Wunderground v.1.15,2013-01-28 14:50:00,
2013-01-28 07:55:00,33.2,31.1,29.76,NW,318,0.0,0.0,92,0.00,,,0.01,Wunderground v.1.15,2013-01-28 14:55:00,
2013-01-28 08:00:00,33.7,31.6,29.76,NNW,335,2.0,2.0,92,0.00,,,0.01,Wunderground v.1.15,2013-01-28 15:00:00,
2013-01-28 08:05:00,34.0,31.6,29.76,NNW,335,0.0,2.0,91,0.00,,,0.01,Wunderground v.1.15,2013-01-28 15:05:00,
2013-01-28 08:10:00,33.8,31.5,29.76,NNW,335,0.0,1.0,91,0.00,,,0.01,Wunderground v.1.15,2013-01-28 15:10:00,
2013-01-28 08:15:00,33.8,31.5,29.76,NNW,335,0.0,2.0,91,0.00,,,0.01,Wunderground v.1.15,2013-01-28 15:15:00,
2013-01-28 08:20:00,34.0,31.6,29.73,NNW,335,0.0,1.0,91,0.00,,,0.01,Wunderground v.1.15,2013-01-28 15:20:00,
2013-01-28 08:25:00,34.1,31.7,29.73,NNW,335,1.0,2.0,91,0.00,,,0.01,Wunderground v.1.15,2013-01-28 15:25:00,
2013-01-28 08:30:00,34.4,32.3,29.73,NNW,335,2.0,2.0,92,0.00,,,0.01,Wunderground v.1.15,2013-01-28 15:30:00,
2013-01-28 08:35:00,34.7,32.3,29.74,North,10,0.0,4.0,91,0.00,,,0.01,Wunderground v.1.15,2013-01-28 15:35:00,
2013-01-28 08:40:00,34.9,32.5,29.74,North,10,2.0,2.0,91,0.00,,,0.01,Wunderground v.1.15,2013-01-28 15:40:00,
2013-01-28 08:45:00,34.9,32.5,29.74,North,10,1.0,4.0,91,0.00,,,0.01,Wunderground v.1.15,2013-01-28 15:45:00,
2013-01-28 08:50:00,34.9,32.5,29.73,North,10,0.0,1.0,91,0.00,,,0.01,Wunderground v.1.15,2013-01-28 15:50:00,
2013-01-28 08:55:00,35.0,32.6,29.73,North,10,0.0,1.0,91,0.00,,,0.01,Wunderground v.1.15,2013-01-28 15:55:00,
2013-01-28 09:00:00,35.3,32.9,29.73,NNW,335,1.0,2.0,91,0.00,,,0.01,Wunderground v.1.15,2013-01-28 16:00:00,
2013-01-28 09:05:00,35.6,33.2,29.73,NNW,335,1.0,3.0,91,0.00,,,0.01,Wunderground v.1.15,2013-01-28 16:05:00,
2013-01-28 09:10:00,35.8,33.2,29.73,NW,317,1.0,2.0,90,0.00,,,0.01,Wunderground v.1.15,2013-01-28 16:10:00,
2013-01-28 09:15:00,35.9,33.3,29.73,NW,317,0.0,3.0,90,0.00,,,0.01,Wunderground v.1.15,2013-01-28 16:15:00,
2013-01-28 09:20:00,35.9,33.3,29.75,NW,317,0.0,1.0,90,0.00,,,0.01,Wunderground v.1.15,2013-01-28 16:20:00,
2013-01-28 09:25:00,36.0,33.4,29.75,NW,317,0.0,1.0,90,0.00,,,0.01,Wunderground v.1.15,2013-01-28 16:25:00,
2013-01-28 09:30:00,35.9,33.3,29.75,NW,317,0.0,0.0,90,0.00,,,0.01,Wunderground v.1.15,2013-01-28 16:30:00,
2013-01-28 09:35:00,35.8,33.2,29.75,NW,317,0.0,0.0,90,0.00,,,0.01,Wunderground v.1.15,2013-01-28 16:35:00,
2013-01-28 09:40:00,35.8,32.9,29.75,NNW,344,2.0,3.0,89,0.00,,,0.01,Wunderground v.1.15,2013-01-28 16:40:00,
2013-01-28 09:45:00,35.9,33.0,29.75,NNW,344,0.0,3.0,89,0.00,,,0.01,Wunderground v.1.15,2013-01-28 16:45:00,
2013-01-28 09:50:00,36.2,33.3,29.75,NNW,344,0.0,1.0,89,0.00,,,0.01,Wunderground v.1.15,2013-01-28 16:50:00,
2013-01-28 09:55:00,36.3,33.4,29.75,NNW,344,1.0,1.0,89,0.00,,,0.01,Wunderground v.1.15,2013-01-28 16:55:00,
2013-01-28 10:00:00,36.6,33.7,29.75,NNW,345,0.0,1.0,89,0.00,,,0.01,Wunderground v.1.15,2013-01-28 17:00:00,
2013-01-28 10:05:00,36.6,33.7,29.76,ESE,114,2.0,4.0,89,0.00,,,0.01,Wunderground v.1.15,2013-01-28 17:05:00,
2013-01-28 10:10:00,36.6,33.4,29.76,ESE,115,0.0,2.0,88,0.00,,,0.01,Wunderground v.1.15,2013-01-28 17:10:00,
2013-01-28 10:15:00,36.6,33.4,29.76,ESE,115,1.0,2.0,88,0.00,,,0.01,Wunderground v.1.15,2013-01-28 17:15:00,
2013-01-28 10:20:00,36.8,33.6,29.75,ESE,115,1.0,2.0,88,0.00,,,0.01,Wunderground v.1.15,2013-01-28 17:20:00,
2013-01-28 10:25:00,36.8,33.3,29.75,ESE,122,1.0,4.0,87,0.00,,,0.01,Wunderground v.1.15,2013-01-28 17:25:00,
2013-01-28 10:30:00,36.9,33.4,29.75,ESE,122,2.0,3.0,87,0.00,,,0.01,Wunderground v.1.15,2013-01-28 17:30:00,
2013-01-28 10:35:00,36.8,33.3,29.76,ESE,123,1.0,5.0,87,0.00,,,0.01,Wunderground v.1.15,2013-01-28 17:35:00,
2013-01-28 10:40:00,36.9,33.4,29.76,ESE,123,1.0,1.0,87,0.00,,,0.01,Wunderground v.1.15,2013-01-28 17:40:00,
2013-01-28 10:45:00,37.0,33.5,29.76,ESE,110,2.0,2.0,87,0.00,,,0.01,Wunderground v.1.15,2013-01-28 17:45:00,
2013-01-28 10:50:00,37.2,33.7,29.76,ESE,105,0.0,1.0,87,0.00,,,0.01,Wunderground v.1.15,2013-01-28 17:50:00,
2013-01-28 10:55:00,37.3,33.8,29.76,ESE,103,0.0,4.0,87,0.00,,,0.01,Wunderground v.1.15,2013-01-28 17:55:00,
2013-01-28 11:00:00,37.6,33.5,29.76,ESE,103,0.0,1.0,85,0.00,,,0.01,Wunderground v.1.15,2013-01-28 18:00:00,
2013-01-28 11:05:00,38.0,33.3,29.76,ENE,63,4.0,4.0,83,0.00,,,0.01,Wunderground v.1.15,2013-01-28 18:05:00,
2013-01-28 11:10:00,38.0,33.3,29.76,North,360,1.0,2.0,83,0.00,,,0.01,Wunderground v.1.15,2013-01-28 18:10:00,
2013-01-28 11:15:00,37.9,32.6,29.76,WNW,302,8.0,12.0,81,0.00,,,0.01,Wunderground v.1.15,2013-01-28 18:15:00,
2013-01-28 11:20:00,37.8,31.6,29.78,WNW,284,3.0,4.0,78,0.00,,,0.01,Wunderground v.1.15,2013-01-28 18:20:00,
2013-01-28 11:25:00,37.8,30.6,29.78,West,269,0.0,9.0,75,0.00,,,0.01,Wunderground v.1.15,2013-01-28 18:25:00,
2013-01-28 11:30:00,37.9,30.4,29.78,West,277,0.0,2.0,74,0.00,,,0.01,Wunderground v.1.15,2013-01-28 18:30:00,
2013-01-28 11:35:00,38.0,30.4,29.78,West,281,1.0,8.0,74,0.00,,,0.01,Wunderground v.1.15,2013-01-28 18:35:00,
2013-01-28 11:40:00,38.0,30.1,29.78,SE,135,2.0,2.0,73,0.00,,,0.01,Wunderground v.1.15,2013-01-28 18:40:00,
2013-01-28 11:45:00,38.0,29.8,29.78,ESE,110,0.0,3.0,72,0.00,,,0.01,Wunderground v.1.15,2013-01-28 18:45:00,
2013-01-28 11:50:00,38.2,29.6,29.76,ESE,110,0.0,0.0,71,0.00,,,0.01,Wunderground v.1.15,2013-01-28 18:50:00,
2013-01-28 11:55:00,37.9,30.4,29.76,NNE,31,4.0,6.0,74,0.00,,,0.01,Wunderground v.1.15,2013-01-28 18:55:00,
2013-01-28 12:00:00,37.2,30.3,29.76,NNE,26,4.0,6.0,76,0.00,,,0.01,Wunderground v.1.15,2013-01-28 19:00:00,
2013-01-28 12:06:00,37.0,29.8,29.77,North,360,7.0,11.0,75,0.00,,,0.01,Wunderground v.1.15,2013-01-28 19:06:00,
2013-01-28 12:11:00,37.2,29.7,29.77,North,355,5.0,9.0,74,0.00,,,0.01,Wunderground v.1.15,2013-01-28 19:11:00,
2013-01-28 12:16:00,37.6,29.7,29.77,NNW,336,4.0,11.0,73,0.00,,,0.01,Wunderground v.1.15,2013-01-28 19:16:00,
2013-01-28 12:21:00,37.6,29.7,29.74,NNW,347,3.0,12.0,73,0.00,,,0.01,Wunderground v.1.15,2013-01-28 19:21:00,
2013-01-28 12:26:00,37.6,29.7,29.74,NW,308,7.0,12.0,73,0.00,,,0.01,Wunderground v.1.15,2013-01-28 19:26:00,
2013-01-28 12:31:00,37.8,29.9,29.74,WNW,300,3.0,7.0,73,0.00,,,0.01,Wunderground v.1.15,2013-01-28 19:31:00,
2013-01-28 12:36:00,37.8,29.9,29.74,NW,315,1.0,11.0,73,0.00,,,0.01,Wunderground v.1.15,2013-01-28 19:36:00,
2013-01-28 12:41:00,37.6,29.7,29.74,WNW,302,4.0,5.0,73,0.00,,,0.01,Wunderground v.1.15,2013-01-28 19:41:00,
2013-01-28 12:46:00,37.6,30.1,29.74,NW,309,5.0,6.0,74,0.00,,,0.01,Wunderground v.1.15,2013-01-28 19:46:00,
2013-01-28 12:51:00,37.8,30.3,29.74,NW,309,0.0,4.0,74,0.00,,,0.01,Wunderground v.1.15,2013-01-28 19:51:00,
2013-01-28 12:56:00,37.8,29.9,29.74,NW,325,3.0,6.0,73,0.00,,,0.01,Wunderground v.1.15,2013-01-28 19:56:00,
2013-01-28 13:01:00,38.0,30.4,29.74,NW,322,1.0,5.0,74,0.00,,,0.01,Wunderground v.1.15,2013-01-28 20:01:00,
2013-01-28 13:06:00,38.5,30.3,29.74,NNW,329,0.0,6.0,72,0.00,,,0.01,Wunderground v.1.15,2013-01-28 20:06:00,
2013-01-28 13:11:00,38.6,30.4,29.74,North,355,3.0,6.0,72,0.00,,,0.01,Wunderground v.1.15,2013-01-28 20:11:00,
2013-01-28 13:16:00,38.2,30.3,29.74,NNW,348,5.0,7.0,73,0.00,,,0.01,Wunderground v.1.15,2013-01-28 20:16:00,
2013-01-28 13:21:00,37.6,30.1,29.76,North,355,5.0,5.0,74,0.00,,,0.01,Wunderground v.1.15,2013-01-28 20:21:00,
2013-01-28 13:26:00,37.5,30.3,29.76,NNW,336,5.0,10.0,75,0.00,,,0.01,Wunderground v.1.15,2013-01-28 20:26:00,
2013-01-28 13:31:00,37.3,30.4,29.76,NNW,344,4.0,4.0,76,0.00,,,0.01,Wunderground v.1.15,2013-01-28 20:31:00,
2013-01-28 13:36:00,37.2,30.7,29.76,NNW,346,6.0,8.0,77,0.00,,,0.01,Wunderground v.1.15,2013-01-28 20:36:00,
2013-01-28 13:41:00,37.0,30.5,29.76,North,349,5.0,6.0,77,0.00,,,0.01,Wunderground v.1.15,2013-01-28 20:41:00,
2013-01-28 13:46:00,36.9,30.7,29.76,North,350,0.0,6.0,78,0.00,,,0.01,Wunderground v.1.15,2013-01-28 20:46:00,
2013-01-28 13:51:00,36.9,30.7,29.76,North,349,4.0,4.0,78,0.00,,,0.01,Wunderground v.1.15,2013-01-28 20:51:00,
2013-01-28 13:56:00,36.9,30.7,29.76,North,350,1.0,4.0,78,0.00,,,0.01,Wunderground v.1.15,2013-01-28 20:56:00,
2013-01-28 14:01:00,36.8,30.6,29.76,North,349,2.0,5.0,78,0.00,,,0.01,Wunderground v.1.15,2013-01-28 21:01:00,
2013-01-28 14:06:00,36.8,30.9,29.76,NNW,347,3.0,6.0,79,0.00,,,0.01,Wunderground v.1.15,2013-01-28 21:06:00,
2013-01-28 14:11:00,36.9,31.0,29.76,NNW,333,5.0,5.0,79,0.00,,,0.01,Wunderground v.1.15,2013-01-28 21:11:00,
2013-01-28 14:16:00,36.9,31.0,29.79,North,355,5.0,8.0,79,0.00,,,0.01,Wunderground v.1.15,2013-01-28 21:16:00,
2013-01-28 14:21:00,36.6,31.0,29.79,North,355,1.0,4.0,80,0.00,,,0.01,Wunderground v.1.15,2013-01-28 21:21:00,
2013-01-28 14:26:00,36.3,31.0,29.79,North,355,6.0,7.0,81,0.00,,,0.01,Wunderground v.1.15,2013-01-28 21:26:00,
2013-01-28 14:31:00,36.0,30.7,29.79,NNW,338,4.0,9.0,81,0.00,,,0.01,Wunderground v.1.15,2013-01-28 21:31:00,
2013-01-28 14:36:00,35.8,30.5,29.79,North,351,3.0,9.0,81,0.00,,,0.01,Wunderground v.1.15,2013-01-28 21:36:00,
2013-01-28 14:41:00,35.6,30.3,29.79,NNW,347,3.0,7.0,81,0.00,,,0.01,Wunderground v.1.15,2013-01-28 21:41:00,
2013-01-28 14:46:00,35.6,30.3,29.78,NNW,346,5.0,7.0,81,0.00,,,0.01,Wunderground v.1.15,2013-01-28 21:46:00,
2013-01-28 14:51:00,35.5,30.2,29.78,NNW,344,0.0,4.0,81,0.00,,,0.01,Wunderground v.1.15,2013-01-28 21:51:00,
2013-01-28 14:56:00,35.5,30.2,29.78,NNW,347,3.0,6.0,81,0.00,,,0.01,Wunderground v.1.15,2013-01-28 21:56:00,
2013-01-28 15:01:00,35.5,30.2,29.79,WNW,301,4.0,10.0,81,0.00,,,0.01,Wunderground v.1.15,2013-01-28 22:01:00,
2013-01-28 15:06:00,34.9,29.0,29.79,WNW,290,2.0,11.0,79,0.00,,,0.01,Wunderground v.1.15,2013-01-28 22:06:00,
2013-01-28 15:11:00,34.7,28.5,29.79,WNW,288,3.0,7.0,78,0.00,,,0.01,Wunderground v.1.15,2013-01-28 22:11:00,
2013-01-28 15:16:00,34.9,28.4,29.79,NW,306,5.0,12.0,77,0.00,,,0.01,Wunderground v.1.15,2013-01-28 22:16:00,
2013-01-28 15:21:00,34.6,28.1,29.79,WNW,298,10.0,12.0,77,0.00,,,0.01,Wunderground v.1.15,2013-01-28 22:21:00,
2013-01-28 15:26:00,34.4,28.2,29.79,NW,306,12.0,14.0,78,0.00,,,0.01,Wunderground v.1.15,2013-01-28 22:26:00,
2013-01-28 15:31:00,34.1,28.3,29.80,NW,319,6.0,12.0,79,0.00,,,0.01,Wunderground v.1.15,2013-01-28 22:31:00,
2013-01-28 15:36:00,33.5,28.3,29.80,NW,306,3.0,18.0,81,0.00,,,0.01,Wunderground v.1.15,2013-01-28 22:36:00,
2013-01-28 15:41:00,32.8,28.2,29.80,NW,326,8.0,12.0,83,0.00,,,0.01,Wunderground v.1.15,2013-01-28 22:41:00,
2013-01-28 15:46:00,32.1,27.8,29.82,WNW,297,11.0,18.0,84,0.00,,,0.01,Wunderground v.1.15,2013-01-28 22:46:00,
2013-01-28 15:51:00,31.3,27.0,29.82,WNW,293,12.0,13.0,84,0.00,,,0.01,Wunderground v.1.15,2013-01-28 22:51:00,
2013-01-28 15:56:00,30.7,26.4,29.82,WNW,300,5.0,15.0,84,0.00,,,0.01,Wunderground v.1.15,2013-01-28 22:56:00,
2013-01-28 16:01:00,30.6,26.3,29.83,WNW,297,5.0,18.0,84,0.00,,,0.01,Wunderground v.1.15,2013-01-28 23:01:00,
2013-01-28 16:06:00,30.6,26.1,29.83,WNW,286,8.0,18.0,83,0.00,,,0.01,Wunderground v.1.15,2013-01-28 23:06:00,
2013-01-28 16:11:00,30.7,25.6,29.83,WNW,285,6.0,10.0,81,0.00,,,0.01,Wunderground v.1.15,2013-01-28 23:11:00,
2013-01-28 16:16:00,30.9,25.5,29.81,West,267,9.0,15.0,80,0.00,,,0.01,Wunderground v.1.15,2013-01-28 23:16:00,
2013-01-28 16:22:00,30.9,24.8,29.81,NW,305,10.0,18.0,78,0.00,,,0.01,Wunderground v.1.15,2013-01-28 23:22:00,
2013-01-28 16:26:00,31.2,24.5,29.81,NW,309,9.0,18.0,76,0.00,,,0.01,Wunderground v.1.15,2013-01-28 23:26:00,
2013-01-28 16:32:00,31.5,24.5,29.81,West,269,3.0,12.0,75,0.00,,,0.01,Wunderground v.1.15,2013-01-28 23:32:00,
2013-01-28 16:37:00,31.5,24.5,29.81,WNW,284,4.0,12.0,75,0.00,,,0.01,Wunderground v.1.15,2013-01-28 23:37:00,
2013-01-28 16:42:00,31.3,24.3,29.81,West,274,9.0,13.0,75,0.00,,,0.01,Wunderground v.1.15,2013-01-28 23:42:00,
2013-01-28 16:47:00,31.2,23.9,29.80,West,272,9.0,14.0,74,0.00,,,0.01,Wunderground v.1.15,2013-01-28 23:47:00,
2013-01-28 16:52:00,31.2,23.9,29.80,WSW,251,6.0,13.0,74,0.00,,,0.01,Wunderground v.1.15,2013-01-28 23:52:00,
2013-01-28 16:57:00,31.2,23.9,29.80,NW,306,9.0,13.0,74,0.00,,,0.01,Wunderground v.1.15,2013-01-28 23:57:00,
2013-01-28 17:02:00,31.0,24.0,29.81,WNW,293,6.0,11.0,75,0.00,,,0.01,Wunderground v.1.15,2013-01-29 00:02:00,
2013-01-28 17:07:00,31.0,24.0,29.81,WNW,292,3.0,11.0,75,0.00,,,0.01,Wunderground v.1.15,2013-01-29 00:07:00,
2013-01-28 17:12:00,31.0,24.3,29.81,WNW,290,10.0,10.0,76,0.00,,,0.01,Wunderground v.1.15,2013-01-29 00:12:00,
2013-01-28 17:17:00,31.2,24.2,29.82,West,266,10.0,13.0,75,0.00,,,0.01,Wunderground v.1.15,2013-01-29 00:17:00,
2013-01-28 17:22:00,31.5,24.2,29.82,West,273,6.0,12.0,74,0.00,,,0.01,Wunderground v.1.15,2013-01-29 00:22:00,
2013-01-28 17:27:00,31.6,23.6,29.82,West,275,5.0,12.0,72,0.00,,,0.01,Wunderground v.1.15,2013-01-29 00:27:00,
2013-01-28 17:32:00,31.8,22.1,29.82,West,277,3.0,14.0,67,0.00,,,0.01,Wunderground v.1.15,2013-01-29 00:32:00,
2013-01-28 17:37:00,31.9,21.5,29.82,WSW,252,4.0,14.0,65,0.00,,,0.01,Wunderground v.1.15,2013-01-29 00:37:00,
2013-01-28 17:42:00,31.9,20.7,29.82,WSW,253,6.0,10.0,63,0.00,,,0.01,Wunderground v.1.15,2013-01-29 00:42:00,
2013-01-28 17:47:00,32.1,20.9,29.82,WSW,247,4.0,12.0,63,0.00,,,0.01,Wunderground v.1.15,2013-01-29 00:47:00,
2013-01-28 17:52:00,32.1,20.2,29.82,SW,232,2.0,6.0,61,0.00,,,0.01,Wunderground v.1.15,2013-01-29 00:52:00,
2013-01-28 17:57:00,32.1,20.2,29.82,WSW,244,3.0,9.0,61,0.00,,,0.01,Wunderground v.1.15,2013-01-29 00:57:00,
2013-01-28 18:02:00,32.1,20.2,29.83,WSW,248,3.0,6.0,61,0.00,,,0.01,Wunderground v.1.15,2013-01-29 01:02:00,
2013-01-28 18:07:00,32.2,19.9,29.83,SW,229,8.0,12.0,60,0.00,,,0.01,Wunderground v.1.15,2013-01-29 01:07:00,
2013-01-28 18:12:00,32.1,20.2,29.83,WSW,247,2.0,10.0,61,0.00,,,0.01,Wunderground v.1.15,2013-01-29 01:12:00,
2013-01-28 18:17:00,32.1,19.0,29.84,WSW,242,5.0,10.0,58,0.00,,,0.01,Wunderground v.1.15,2013-01-29 01:17:00,
2013-01-28 18:22:00,32.1,19.4,29.84,SW,236,10.0,12.0,59,0.00,,,0.01,Wunderground v.1.15,2013-01-29 01:22:00,
2013-01-28 18:27:00,32.2,18.7,29.84,WSW,247,11.0,17.0,57,0.00,,,0.01,Wunderground v.1.15,2013-01-29 01:27:00,
2013-01-28 18:32:00,32.2,18.7,29.84,WSW,241,12.0,13.0,57,0.00,,,0.01,Wunderground v.1.15,2013-01-29 01:32:00,
2013-01-28 18:37:00,32.1,18.6,29.84,SW,236,6.0,15.0,57,0.00,,,0.01,Wunderground v.1.15,2013-01-29 01:37:00,
2013-01-28 18:42:00,32.1,18.2,29.84,West,266,5.0,13.0,56,0.00,,,0.01,Wunderground v.1.15,2013-01-29 01:42:00,
2013-01-28 18:47:00,32.1,18.6,29.85,WSW,245,10.0,15.0,57,0.00,,,0.01,Wunderground v.1.15,2013-01-29 01:47:00,
2013-01-28 18:52:00,31.9,18.4,29.85,SW,234,6.0,14.0,57,0.00,,,0.01,Wunderground v.1.15,2013-01-29 01:52:00,
2013-01-28 18:57:00,31.8,18.7,29.85,WSW,246,5.0,15.0,58,0.00,,,0.01,Wunderground v.1.15,2013-01-29 01:57:00,
2013-01-28 19:02:00,31.6,18.5,29.85,West,280,11.0,15.0,58,0.00,,,0.01,Wunderground v.1.15,2013-01-29 02:02:00,
2013-01-28 19:07:00,31.5,19.2,29.85,West,279,6.0,15.0,60,0.00,,,0.01,Wunderground v.1.15,2013-01-29 02:07:00,
2013-01-28 19:12:00,31.3,19.8,29.85,SSW,213,9.0,15.0,62,0.00,,,0.01,Wunderground v.1.15,2013-01-29 02:12:00,
2013-01-28 19:17:00,31.0,18.7,29.88,SW,217,7.0,15.0,60,0.00,,,0.01,Wunderground v.1.15,2013-01-29 02:17:00,
2013-01-28 19:22:00,31.0,18.3,29.88,WSW,242,4.0,12.0,59,0.00,,,0.01,Wunderground v.1.15,2013-01-29 02:22:00,
2013-01-28 19:27:00,31.0,18.7,29.88,SW,226,2.0,13.0,60,0.00,,,0.01,Wunderground v.1.15,2013-01-29 02:27:00,
2013-01-28 19:32:00,31.0,18.7,29.88,West,271,9.0,10.0,60,0.00,,,0.01,Wunderground v.1.15,2013-01-29 02:32:00,
2013-01-28 19:37:00,30.9,18.6,29.88,SW,223,10.0,11.0,60,0.00,,,0.01,Wunderground v.1.15,2013-01-29 02:37:00,
2013-01-28 19:42:00,31.0,17.5,29.88,WSW,238,4.0,11.0,57,0.00,,,0.01,Wunderground v.1.15,2013-01-29 02:42:00,
2013-01-28 19:47:00,31.0,17.1,29.88,SW,236,4.0,12.0,56,0.00,,,0.01,Wunderground v.1.15,2013-01-29 02:47:00,
2013-01-28 19:52:00,31.0,17.9,29.88,SW,218,1.0,7.0,58,0.00,,,0.01,Wunderground v.1.15,2013-01-29 02:52:00,
2013-01-28 19:57:00,31.0,17.1,29.88,WSW,240,2.0,11.0,56,0.00,,,0.01,Wunderground v.1.15,2013-01-29 02:57:00,
2013-01-28 20:02:00,31.0,17.1,29.88,SW,233,3.0,10.0,56,0.00,,,0.01,Wunderground v.1.15,2013-01-29 03:02:00,
2013-01-28 20:07:00,31.2,16.0,29.88,WSW,242,2.0,10.0,53,0.00,,,0.01,Wunderground v.1.15,2013-01-29 03:07:00,
2013-01-28 20:12:00,31.2,16.5,29.88,SW,236,3.0,7.0,54,0.00,,,0.01,Wunderground v.1.15,2013-01-29 03:12:00,
2013-01-28 20:17:00,31.2,15.6,29.88,SW,226,3.0,7.0,52,0.00,,,0.01,Wunderground v.1.15,2013-01-29 03:17:00,
2013-01-28 20:22:00,31.2,16.5,29.88,SW,221,6.0,6.0,54,0.00,,,0.01,Wunderground v.1.15,2013-01-29 03:22:00,
2013-01-28 20:27:00,31.2,16.5,29.88,SW,221,1.0,6.0,54,0.00,,,0.01,Wunderground v.1.15,2013-01-29 03:27:00,
2013-01-28 20:32:00,31.2,16.5,29.87,SW,221,1.0,4.0,54,0.00,,,0.01,Wunderground v.1.15,2013-01-29 03:32:00,
2013-01-28 20:37:00,31.0,16.3,29.87,SW,221,1.0,4.0,54,0.00,,,0.01,Wunderground v.1.15,2013-01-29 03:37:00,
2013-01-28 20:42:00,31.0,15.8,29.87,SW,222,1.0,3.0,53,0.00,,,0.01,Wunderground v.1.15,2013-01-29 03:42:00,
2013-01-28 20:48:00,30.9,15.3,29.88,WSW,248,2.0,6.0,52,0.00,,,0.01,Wunderground v.1.15,2013-01-29 03:48:00,
2013-01-28 20:53:00,31.0,15.8,29.88,WSW,244,5.0,5.0,53,0.00,,,0.01,Wunderground v.1.15,2013-01-29 03:53:00,
2013-01-28 20:58:00,31.0,15.4,29.88,West,271,1.0,7.0,52,0.00,,,0.01,Wunderground v.1.15,2013-01-29 03:58:00,
2013-01-28 21:03:00,31.0,15.0,29.88,West,270,3.0,6.0,51,0.00,,,0.01,Wunderground v.1.15,2013-01-29 04:03:00,
2013-01-28 21:08:00,31.0,15.4,29.88,West,270,0.0,6.0,52,0.00,,,0.01,Wunderground v.1.15,2013-01-29 04:08:00,
2013-01-28 21:13:00,30.9,14.9,29.88,West,267,1.0,4.0,51,0.00,,,0.01,Wunderground v.1.15,2013-01-29 04:13:00,
2013-01-28 21:18:00,30.9,14.4,29.88,West,261,5.0,6.0,50,0.00,,,0.01,Wunderground v.1.15,2013-01-29 04:18:00,
2013-01-28 21:23:00,30.9,14.0,29.88,West,261,4.0,7.0,49,0.00,,,0.01,Wunderground v.1.15,2013-01-29 04:23:00,
2013-01-28 21:28:00,30.7,14.2,29.88,WNW,284,3.0,7.0,50,0.00,,,0.01,Wunderground v.1.15,2013-01-29 04:28:00,
2013-01-28 21:33:00,30.6,13.7,29.88,West,270,1.0,9.0,49,0.00,,,0.01,Wunderground v.1.15,2013-01-29 04:33:00,
2013-01-28 21:38:00,30.4,13.0,29.88,West,271,2.0,9.0,48,0.00,,,0.01,Wunderground v.1.15,2013-01-29 04:38:00,
2013-01-28 21:43:00,30.1,13.2,29.88,West,270,3.0,3.0,49,0.00,,,0.01,Wunderground v.1.15,2013-01-29 04:43:00,
2013-01-28 21:48:00,30.0,13.1,29.89,West,270,1.0,6.0,49,0.00,,,0.01,Wunderground v.1.15,2013-01-29 04:48:00,
2013-01-28 21:53:00,29.7,12.8,29.89,West,269,2.0,5.0,49,0.00,,,0.01,Wunderground v.1.15,2013-01-29 04:53:00,
2013-01-28 21:58:00,29.5,12.2,29.89,West,276,1.0,7.0,48,0.00,,,0.01,Wunderground v.1.15,2013-01-29 04:58:00,
2013-01-28 22:00:00,29.5,12.7,29.89,WNW,284,9.0,9.0,49,0.00,,,0.01,Wunderground v.1.15,2013-01-29 05:00:00,
2013-01-28 22:01:00,29.5,12.2,29.89,WNW,288,4.0,9.0,48,0.00,,,0.01,Wunderground v.1.15,2013-01-29 05:01:00,
2013-01-28 22:03:00,29.5,12.7,29.89,WNW,287,2.0,9.0,49,0.00,,,0.01,Wunderground v.1.15,2013-01-29 05:03:00,
2013-01-28 22:08:00,29.5,12.7,29.89,WNW,288,1.0,9.0,49,0.00,,,0.01,Wunderground v.1.15,2013-01-29 05:08:00,
2013-01-28 22:13:00,29.4,13.0,29.89,WNW,288,3.0,3.0,50,0.00,,,0.01,Wunderground v.1.15,2013-01-29 05:13:00,
2013-01-28 22:18:00,29.3,13.8,29.89,WNW,290,1.0,3.0,52,0.00,,,0.01,Wunderground v.1.15,2013-01-29 05:18:00,
2013-01-28 22:23:00,29.1,14.1,29.89,WNW,290,0.0,2.0,53,0.00,,,0.01,Wunderground v.1.15,2013-01-29 05:23:00,
2013-01-28 22:28:00,28.8,14.6,29.89,WNW,290,0.0,2.0,55,0.00,,,0.01,Wunderground v.1.15,2013-01-29 05:28:00,
2013-01-28 22:33:00,28.5,14.8,29.90,WNW,290,0.0,0.0,56,0.00,,,0.01,Wunderground v.1.15,2013-01-29 05:33:00,
2013-01-28 22:38:00,28.4,15.5,29.90,WNW,290,0.0,0.0,58,0.00,,,0.01,Wunderground v.1.15,2013-01-29 05:38:00,
2013-01-28 22:43:00,28.1,15.6,29.90,WNW,290,0.0,0.0,59,0.00,,,0.01,Wunderground v.1.15,2013-01-29 05:43:00,
2013-01-28 22:48:00,27.9,15.8,29.90,WNW,290,0.0,0.0,60,0.00,,,0.01,Wunderground v.1.15,2013-01-29 05:48:00,
2013-01-28 22:53:00,27.9,15.8,29.90,WNW,290,0.0,1.0,60,0.00,,,0.01,Wunderground v.1.15,2013-01-29 05:53:00,
2013-01-28 22:58:00,27.8,15.7,29.90,WNW,290,0.0,4.0,60,0.00,,,0.01,Wunderground v.1.15,2013-01-29 05:58:00,
2013-01-28 23:03:00,27.6,15.1,29.90,WNW,290,0.0,0.0,59,0.00,,,0.01,Wunderground v.1.15,2013-01-29 06:03:00,
2013-01-28 23:08:00,27.5,15.0,29.90,WNW,290,0.0,1.0,59,0.00,,,0.01,Wunderground v.1.15,2013-01-29 06:08:00,
2013-01-28 23:13:00,27.2,14.8,29.90,WNW,290,0.0,2.0,59,0.00,,,0.01,Wunderground v.1.15,2013-01-29 06:13:00,
2013-01-28 23:18:00,26.9,14.9,29.90,WNW,290,0.0,2.0,60,0.00,,,0.01,Wunderground v.1.15,2013-01-29 06:18:00,
2013-01-28 23:24:00,26.6,14.6,29.90,WNW,290,0.0,0.0,60,0.00,,,0.01,Wunderground v.1.15,2013-01-29 06:24:00,
2013-01-28 23:28:00,26.0,14.8,29.90,WNW,290,0.0,0.0,62,0.00,,,0.01,Wunderground v.1.15,2013-01-29 06:28:00,
2013-01-28 23:34:00,25.4,14.9,29.92,WNW,290,0.0,0.0,64,0.00,,,0.01,Wunderground v.1.15,2013-01-29 06:34:00,
2013-01-28 23:39:00,25.1,14.6,29.92,WNW,290,0.0,0.0,64,0.00,,,0.01,Wunderground v.1.15,2013-01-29 06:39:00,
2013-01-28 23:44:00,24.5,14.8,29.92,WNW,290,0.0,0.0,66,0.00,,,0.01,Wunderground v.1.15,2013-01-29 06:44:00,
2013-01-28 23:49:00,23.8,14.4,29.92,WNW,290,0.0,0.0,67,0.00,,,0.01,Wunderground v.1.15,2013-01-29 06:49:00,
2013-01-28 23:54:00,23.3,14.3,29.92,WNW,290,0.0,0.0,68,0.00,,,0.01,Wunderground v.1.15,2013-01-29 06:54:00,
2013-01-28 23:59:00,22.9,14.2,29.92,WNW,290,0.0,0.0,69,0.00,,,0.01,Wunderground v.1.15,2013-01-29 06:59:00,